| time (UTC) | temp C | wind direction | speed KPH | gust KPH | rain 1hr cm | rain 24hr cm | rain mn cm | humidity % | barometer mb |
| 20260506110020 | 23 | 138 | 3.2 | 0.0 | 0.00 | 0.00 | 0.00 | 81 | 1006.6 |
| 20260506103041 | 23 | 169 | 1.6 | 0.0 | 0.00 | 0.00 | 0.00 | 81 | 1006.6 |
| 20260506094559 | 23 | 109 | 0.0 | 0.0 | 0.00 | 0.00 | 0.00 | 81 | 1006.5 |
| 20260506090045 | 23 | 184 | 1.6 | 0.0 | 0.00 | 0.00 | 0.00 | 81 | 1006.6 |
| 20260506084552 | 23 | 127 | 3.2 | 0.0 | 0.00 | 0.00 | 0.00 | 81 | 1006.3 |
| 20260506083102 | 23 | 120 | 1.6 | 0.0 | 0.00 | 0.00 | 0.00 | 81 | 1006.4 |
| 20260506071536 | 23 | 172 | 1.6 | 0.0 | 0.00 | 0.00 | 0.00 | 82 | 1006.8 |
| 20260506061550 | 24 | 82 | 1.6 | 0.0 | 0.00 | 0.00 | 0.00 | 82 | 1006.8 |
| 20260506044611 | 24 | 134 | 1.6 | 0.0 | 0.00 | 0.00 | 0.00 | 82 | 1006.8 |
| 20260506043022 | 24 | 127 | 1.6 | 0.0 | 0.00 | 0.00 | 0.00 | 82 | 1006.8 |
| 20260506034549 | 24 | 152 | 1.6 | 0.0 | 0.00 | 0.00 | 0.00 | 82 | 1006.5 |
| 20260506030022 | 24 | 178 | 4.8 | 0.0 | 0.00 | 0.00 | 0.00 | 81 | 1005.6 |
| 20260506024554 | 25 | 141 | 4.8 | 0.0 | 0.00 | 0.00 | 0.00 | 81 | 1005.5 |
| 20260506020031 | 25 | 152 | 4.8 | 0.0 | 0.00 | 0.00 | 0.00 | 81 | 1005.0 |
| 20260506013116 | 25 | 28 | 4.8 | 0.0 | 0.00 | 0.00 | 0.00 | 80 | 1004.5 |
| 20260506010105 | 26 | 150 | 4.8 | 0.0 | 0.00 | 0.00 | 0.00 | 79 | 1004.0 |
| 20260506004557 | 26 | 120 | 4.8 | 0.0 | 0.00 | 0.00 | 0.00 | 78 | 1004.0 |
| 20260506003046 | 26 | 101 | 4.8 | 0.0 | 0.00 | 0.00 | 0.00 | 77 | 1003.9 |
| 20260506001549 | 27 | 166 | 4.8 | 0.0 | 0.00 | 0.00 | 0.00 | 76 | 1003.9 |
| 20260506000129 | 27 | 244 | 4.8 | 0.0 | 0.00 | 0.00 | 0.00 | 75 | 1004.1 |
| 20260505234522 | 27 | 115 | 4.8 | 0.0 | 0.00 | 0.00 | 0.00 | 73 | 1004.0 |
| 20260505231606 | 28 | 150 | 4.8 | 0.0 | 0.00 | 0.00 | 0.00 | 72 | 1004.1 |
| 20260505230002 | 28 | 58 | 4.8 | 0.0 | 0.00 | 0.00 | 0.00 | 71 | 1004.2 |
| 20260505224556 | 28 | 212 | 6.4 | 0.0 | 0.00 | 0.00 | 0.00 | 70 | 1004.1 |
| 20260505223055 | 28 | 61 | 4.8 | 0.0 | 0.00 | 0.00 | 0.00 | 70 | 1004.2 |
| 20260505221544 | 29 | 186 | 6.4 | 0.0 | 0.00 | 0.00 | 0.00 | 69 | 1004.2 |
| 20260505214536 | 29 | 186 | 4.8 | 0.0 | 0.00 | 0.00 | 0.00 | 69 | 1004.0 |
| 20260505211502 | 30 | 182 | 4.8 | 0.0 | 0.00 | 0.00 | 0.00 | 68 | 1004.4 |
| 20260505210106 | 29 | 152 | 6.4 | 0.0 | 0.00 | 0.00 | 0.00 | 69 | 1004.6 |
| 20260505204646 | 29 | 198 | 8.0 | 0.0 | 0.00 | 0.00 | 0.00 | 69 | 1004.9 |
| 20260505203139 | 29 | 207 | 9.7 | 0.0 | 0.00 | 0.00 | 0.00 | 68 | 1005.1 |
| 20260505200119 | 29 | 217 | 6.4 | 0.0 | 0.00 | 0.00 | 0.00 | 71 | 1005.3 |
| 20260505193004 | 27 | 155 | 8.0 | 0.0 | 0.00 | 0.00 | 0.00 | 75 | 1005.8 |
| 20260505191557 | 27 | 112 | 4.8 | 0.0 | 0.00 | 0.00 | 0.00 | 76 | 1006.1 |
| 20260505184537 | 27 | 243 | 6.4 | 0.0 | 0.00 | 0.00 | 0.00 | 76 | 1006.2 |
| 20260505183043 | 26 | 172 | 6.4 | 0.0 | 0.00 | 0.00 | 0.00 | 78 | 1006.0 |
| 20260505180019 | 26 | 229 | 3.2 | 0.0 | 0.00 | 0.00 | 0.00 | 77 | 1006.0 |
| 20260505174503 | 26 | 160 | 4.8 | 0.0 | 0.00 | 0.00 | 0.00 | 77 | 1006.2 |
| 20260505171544 | 25 | 114 | 4.8 | 0.0 | 0.00 | 0.00 | 0.00 | 79 | 1006.7 |
| 20260505164534 | 25 | 202 | 4.8 | 0.0 | 0.00 | 0.00 | 0.00 | 79 | 1006.6 |
| 20260505161507 | 24 | 192 | 6.4 | 0.0 | 0.00 | 0.00 | 0.00 | 80 | 1006.9 |
| 20260505151536 | 23 | 134 | 4.8 | 0.0 | 0.00 | 0.00 | 0.00 | 81 | 1006.4 |
| 20260505140104 | 22 | 230 | 3.2 | 0.0 | 0.00 | 0.00 | 0.00 | 81 | 1006.6 |
| 20260505123113 | 21 | 208 | 3.2 | 0.0 | 0.00 | 0.00 | 0.00 | 81 | 1006.1 |
| 20260505121557 | 20 | 164 | 3.2 | 0.0 | 0.00 | 0.00 | 0.00 | 81 | 1006.1 |
| 20260505120150 | 20 | 134 | 3.2 | 0.0 | 0.00 | 0.00 | 0.00 | 82 | 1006.2 |
| 20260505113034 | 20 | 203 | 3.2 | 0.0 | 0.00 | 0.00 | 0.00 | 82 | 1005.9 |